Regional Weather Roundup
Issued by NWS Midland/Odessa, TX

Home | Current Version | Previous Version | Text Only | Print | Product List | Glossary On
Versions: 1 2 3 4 5 6 7 8 9 10 11 12 13 14 15 16 17 18 19 20 21 22 23 24 25 26 27 28 29 30 31 32 33 34 35 36 37 38 39 40 41 42 43 44 45 46 47 48 49 50
000
ASUS44 KMAF 211910
RWRMAF
MIDLAND AREA WEATHER ROUNDUP
NATIONAL WEATHER SERVICE MIDLAND TX
100 PM CST WED FEB 21 2018

...IN SOUTHWEST TEXAS AND SOUTHEAST NEW MEXICO...

CITY           SKY/WX    TMP DP  RH WIND       PRES   REMARKS
ALPINE         CLOUDY    32  29  87 E7        30.27F WCI  26
ANDREWS        CLOUDY    28  22  79 N12       30.29S WCI  18
ARTESIA        FAIR      36  10  35 N13       30.27F WCI  27
BIG SPRING     CLOUDY    26  24  91 N10       30.33R WCI  16
CARLSBAD       FAIR      38  14  37 W9G17     30.26F WCI  31
DRYDEN           N/A     42  29  59 N20G29    30.21F WCI  33
FORT STOCKTON  CLOUDY    33  26  75 NW10      30.28F WCI  25
GUAD PASS      FAIR      36  15  42 NE32      30.14F WCI  23
HOBBS          CLOUDY    32  14  47 N10G16    30.26F WCI  24
LAMESA         CLOUDY    25  19  80 N16       30.29R WCI  12
MARFA          FAIR      47  33  58 MISG        N/A
MIDLAND AIRPK    N/A     29  26  89 N12       30.30F FOG     WCI  19
MIDLAND INTL   CLOUDY    28  24  85 N12       30.29S FOG     WCI  18
ODESSA         CLOUDY    27  23  85 N14       30.29F WCI  16
PECOS          CLOUDY    37  20  50 CALM      30.31F
PRESIDIO       FAIR      66  32  28 S5        30.12F
SEMINOLE       CLOUDY    31  13  47 N12       30.28F WCI  22
SNYDER         CLOUDY    24  19  82 N17       30.28F WCI  10
WINK           CLOUDY    36  19  50 N7        30.28F WCI  30
$$
...OTHER STATIONS IN TEXAS...

CITY           SKY/WX    TMP DP  RH WIND       PRES   REMARKS
ABILENE        FRZ RAIN  28  28 100 N20       30.26F FOG     WCI  15
AMARILLO       CLOUDY    28   2  32 N14       30.31F WCI  17
AUSTIN         LGT RAIN  42  42 100 N16       30.18F WCI  34
BROWNSVILLE    CLOUDY    82  73  74 S23       30.01F
CORPUS CHRISTI PTSUNNY   77  74  90 S22       30.01F
DALLAS FTW     LGT RAIN  35  32  88 NW22      30.29S FOG     WCI  23
DEL RIO        CLOUDY    47  38  71 NW18G26   30.20S WCI  40
EL PASO        FAIR      56  29  35 SE10      30.09F
HOUSTON INT    TSTM      58  57  97 N9        30.06F FOG
LUBBOCK        CLOUDY    30   8  39 N18       30.25F WCI  18
SAN ANGELO     CLOUDY    32  28  85 NW20      30.27S WCI  20
SAN ANTONIO    LGT RAIN  44  41  89 N14G24    30.12F FOG     WCI  37
WACO           LGT RAIN  37  34  89 N23G29    30.23F FOG     WCI  26
WICHITA FALLS  CLOUDY    26  16  65 N13G24    30.46F WCI  15
$$
...OTHER LOCATIONS IN NEW MEXICO...

CITY           SKY/WX    TMP DP  RH WIND       PRES   REMARKS
ALAMOGORDO     FAIR      55  30  38 S18       30.10F
ALBUQUERQUE    FAIR      44  22  41 CALM      30.10F
CANNON AFB     CLOUDY    28   1  32 NE12      30.26F WCI  17
CLOVIS         NOT AVBL
HOLLOMAN AFB   FAIR      57  31  37 S15       30.12F
ROSWELL        FAIR      37   9  31 NE7       30.25F WCI  32
RUIDOSO        NOT AVBL
SANTA FE       PTSUNNY   39  18  42 SE18      30.10F WCI  30
TRUTH OR CONSE NOT AVBL
TUCUMCARI      PTSUNNY   27  -1  30 E8        30.28F WCI  19
$$




USA.gov is the U.S. government's official web portal to all federal, state and local government web resources and services.